| time (UTC) | temp F | wind direction | speed MPH | gust MPH | rain 1hr in | rain 24hr in | rain mn in | humidity % | barometer mb |
| 20260831172529 | 74 | 213 | 2.0 | 14.0 | 0.00 | 0.00 | 0.00 | 51 | 1016.4 |
| 20260831172029 | 74 | 221 | 6.0 | 14.0 | 0.00 | 0.00 | 0.00 | 50 | 1016.4 |
| 20260831171528 | 74 | 134 | 3.0 | 11.0 | 0.00 | 0.00 | 0.00 | 51 | 1016.5 |
| 20260831171128 | 74 | 100 | 4.0 | 12.0 | 0.00 | 0.00 | 0.00 | 52 | 1016.6 |
| 20260831170527 | 73 | 150 | 6.0 | 12.0 | 0.00 | 0.00 | 0.00 | 53 | 1016.5 |
| 20260831170027 | 73 | 113 | 8.0 | 13.0 | 0.00 | 0.00 | 0.00 | 52 | 1016.5 |
| 20260831165527 | 73 | 167 | 6.0 | 13.0 | 0.00 | 0.00 | 0.00 | 52 | 1016.6 |
| 20260831165026 | 73 | 195 | 3.0 | 14.0 | 0.00 | 0.00 | 0.00 | 53 | 1016.6 |
| 20260831164526 | 72 | 157 | 6.0 | 14.0 | 0.00 | 0.00 | 0.00 | 52 | 1016.6 |
| 20260831164025 | 73 | 93 | 5.0 | 13.0 | 0.00 | 0.00 | 0.00 | 52 | 1016.6 |
| 20260831163525 | 73 | 110 | 7.0 | 13.0 | 0.00 | 0.00 | 0.00 | 51 | 1016.6 |
| 20260831163028 | 73 | 129 | 7.0 | 14.0 | 0.00 | 0.00 | 0.00 | 50 | 1016.5 |
| 20260831162525 | 74 | 145 | 4.0 | 14.0 | 0.00 | 0.00 | 0.00 | 47 | 1016.5 |
| 20260831162024 | 74 | 131 | 5.0 | 13.0 | 0.00 | 0.00 | 0.00 | 45 | 1016.3 |
| 20260831161531 | 75 | 140 | 8.0 | 15.0 | 0.00 | 0.00 | 0.00 | 44 | 1016.3 |
| 20260831161024 | 75 | 141 | 8.0 | 15.0 | 0.00 | 0.00 | 0.00 | 43 | 1016.2 |
| 20260831160523 | 75 | 208 | 4.0 | 11.0 | 0.00 | 0.00 | 0.00 | 45 | 1016.2 |
| 20260831160022 | 74 | 134 | 4.0 | 11.0 | 0.00 | 0.00 | 0.00 | 48 | 1016.1 |
| 20260831155523 | 74 | 189 | 4.0 | 9.0 | 0.00 | 0.01 | 0.00 | 50 | 1016.1 |
| 20260831155020 | 74 | 207 | 4.0 | 8.0 | 0.00 | 0.01 | 0.00 | 49 | 1016.1 |
| 20260831154520 | 73 | 141 | 2.0 | 7.0 | 0.00 | 0.01 | 0.00 | 52 | 1016.1 |
| 20260831154023 | 73 | 103 | 0.0 | 0.0 | 0.00 | 0.01 | 0.00 | 55 | 1016.1 |
| 20260831153517 | 73 | 118 | 0.0 | 2.0 | 0.00 | 0.01 | 0.00 | 55 | 1016.4 |
| 20260831153016 | 72 | 82 | 1.0 | 3.0 | 0.00 | 0.01 | 0.00 | 55 | 1016.3 |
| 20260831152515 | 71 | 149 | 0.0 | 5.0 | 0.00 | 0.01 | 0.00 | 58 | 1016.4 |
| 20260831152017 | 71 | 98 | 2.0 | 5.0 | 0.00 | 0.01 | 0.00 | 57 | 1016.4 |
| 20260831151514 | 70 | 158 | 0.0 | 4.0 | 0.00 | 0.01 | 0.00 | 60 | 1016.5 |
| 20260831151010 | 69 | 132 | 1.0 | 4.0 | 0.00 | 0.01 | 0.00 | 60 | 1016.6 |
| 20260831150508 | 69 | 157 | 1.0 | 5.0 | 0.00 | 0.01 | 0.00 | 61 | 1016.8 |
| 20260831150011 | 68 | 147 | 3.0 | 7.0 | 0.00 | 0.01 | 0.00 | 62 | 1016.9 |
| 20260831145506 | 68 | 146 | 4.0 | 7.0 | 0.00 | 0.01 | 0.00 | 61 | 1016.9 |
| 20260831145005 | 68 | 139 | 3.0 | 10.0 | 0.00 | 0.01 | 0.00 | 63 | 1016.8 |
| 20260831144504 | 67 | 130 | 4.0 | 12.0 | 0.00 | 0.01 | 0.00 | 62 | 1016.9 |
| 20260831144003 | 67 | 146 | 5.0 | 12.0 | 0.00 | 0.01 | 0.00 | 62 | 1016.8 |
| 20260831143503 | 67 | 158 | 4.0 | 11.0 | 0.00 | 0.01 | 0.00 | 63 | 1016.9 |
| 20260831143003 | 67 | 162 | 3.0 | 11.0 | 0.00 | 0.01 | 0.00 | 63 | 1016.9 |
| 20260831142503 | 67 | 114 | 6.0 | 11.0 | 0.00 | 0.01 | 0.00 | 63 | 1017.0 |
| 20260831142002 | 67 | 159 | 6.0 | 11.0 | 0.00 | 0.01 | 0.00 | 63 | 1017.0 |
| 20260831141502 | 67 | 139 | 3.0 | 9.0 | 0.00 | 0.01 | 0.00 | 64 | 1016.9 |
| 20260831141100 | 66 | 141 | 4.0 | 7.0 | 0.00 | 0.01 | 0.00 | 64 | 1016.8 |
| 20260831140558 | 66 | 123 | 1.0 | 7.0 | 0.00 | 0.01 | 0.00 | 66 | 1016.8 |
| 20260831140056 | 65 | 148 | 3.0 | 7.0 | 0.00 | 0.01 | 0.00 | 67 | 1016.8 |
| 20260831135555 | 65 | 148 | 2.0 | 10.0 | 0.00 | 0.01 | 0.00 | 69 | 1016.7 |
| 20260831135054 | 64 | 169 | 4.0 | 10.0 | 0.00 | 0.01 | 0.00 | 70 | 1016.6 |
| 20260831134554 | 63 | 180 | 2.0 | 6.0 | 0.00 | 0.01 | 0.00 | 72 | 1016.6 |
| 20260831134053 | 62 | 174 | 3.0 | 6.0 | 0.00 | 0.01 | 0.00 | 73 | 1016.6 |
| 20260831133553 | 61 | 174 | 2.0 | 5.0 | 0.00 | 0.01 | 0.00 | 75 | 1016.5 |
| 20260831133153 | 61 | 115 | 0.0 | 3.0 | 0.00 | 0.01 | 0.00 | 76 | 1016.6 |
| 20260831132553 | 60 | 162 | 0.0 | 1.0 | 0.00 | 0.01 | 0.00 | 76 | 1016.5 |
| 20260831132052 | 60 | 141 | 0.0 | 1.0 | 0.00 | 0.01 | 0.00 | 77 | 1016.4 |
| 20260831131556 | 60 | 148 | 0.0 | 2.0 | 0.00 | 0.01 | 0.00 | 77 | 1016.4 |
| 20260831131051 | 59 | 150 | 0.0 | 5.0 | 0.00 | 0.01 | 0.00 | 78 | 1016.4 |
| 20260831130551 | 59 | 200 | 1.0 | 5.0 | 0.00 | 0.01 | 0.00 | 77 | 1016.4 |
| 20260831130105 | 58 | 219 | 0.0 | 3.0 | 0.00 | 0.01 | 0.00 | 77 | 1016.3 |
| 20260831125551 | 58 | 243 | 0.0 | 0.0 | 0.00 | 0.01 | 0.00 | 77 | 1016.3 |
| 20260831125051 | 58 | 180 | 0.0 | 0.0 | 0.00 | 0.01 | 0.00 | 76 | 1016.1 |
| 20260831124550 | 59 | 180 | 0.0 | 0.0 | 0.00 | 0.01 | 0.00 | 75 | 1016.2 |
| 20260831124049 | 59 | 156 | 0.0 | 0.0 | 0.00 | 0.01 | 0.00 | 75 | 1016.1 |
| 20260831123548 | 59 | 158 | 0.0 | 1.0 | 0.00 | 0.01 | 0.00 | 76 | 1016.1 |
| 20260831123048 | 59 | 140 | 0.0 | 4.0 | 0.00 | 0.01 | 0.00 | 75 | 1016.1 |
| 20260831122548 | 60 | 234 | 1.0 | 6.0 | 0.00 | 0.01 | 0.00 | 74 | 1016.1 |
| 20260831122048 | 60 | 218 | 3.0 | 6.0 | 0.00 | 0.01 | 0.00 | 77 | 1016.1 |
| 20260831121548 | 60 | 209 | 1.0 | 5.0 | 0.00 | 0.01 | 0.00 | 77 | 1016.2 |
| 20260831121047 | 60 | 216 | 2.0 | 6.0 | 0.00 | 0.01 | 0.00 | 78 | 1016.2 |
| 20260831120547 | 60 | 212 | 3.0 | 6.0 | 0.00 | 0.01 | 0.00 | 77 | 1016.2 |
| 20260831120046 | 60 | 197 | 2.0 | 6.0 | 0.00 | 0.01 | 0.00 | 77 | 1016.4 |
| 20260831115546 | 60 | 206 | 2.0 | 3.0 | 0.00 | 0.16 | 0.00 | 77 | 1016.3 |
| 20260831115046 | 60 | 233 | 1.0 | 4.0 | 0.00 | 0.16 | 0.00 | 77 | 1016.3 |
| 20260831114546 | 60 | 234 | 1.0 | 4.0 | 0.00 | 0.16 | 0.00 | 77 | 1016.3 |
| 20260831114046 | 60 | 235 | 0.0 | 2.0 | 0.00 | 0.16 | 0.00 | 77 | 1016.3 |
| 20260831113545 | 60 | 214 | 0.0 | 5.0 | 0.00 | 0.16 | 0.00 | 77 | 1016.4 |
| 20260831113045 | 60 | 154 | 0.0 | 5.0 | 0.00 | 0.16 | 0.00 | 76 | 1016.4 |
| 20260831112544 | 60 | 151 | 1.0 | 4.0 | 0.00 | 0.16 | 0.00 | 76 | 1016.4 |
| 20260831112045 | 60 | 147 | 0.0 | 4.0 | 0.00 | 0.16 | 0.00 | 76 | 1016.4 |
| 20260831111545 | 60 | 248 | 1.0 | 3.0 | 0.00 | 0.16 | 0.00 | 78 | 1016.4 |
| 20260831111044 | 60 | 215 | 0.0 | 2.0 | 0.00 | 0.16 | 0.00 | 78 | 1016.4 |
| 20260831110543 | 60 | 221 | 0.0 | 1.0 | 0.00 | 0.16 | 0.00 | 78 | 1016.3 |
| 20260831110043 | 60 | 221 | 0.0 | 0.0 | 0.00 | 0.16 | 0.00 | 77 | 1016.3 |
| 20260831105546 | 60 | 221 | 0.0 | 0.0 | 0.00 | 0.16 | 0.00 | 77 | 1016.3 |
| 20260831105043 | 60 | 221 | 0.0 | 2.0 | 0.00 | 0.16 | 0.00 | 77 | 1016.2 |
| 20260831104543 | 61 | 219 | 0.0 | 2.0 | 0.00 | 0.16 | 0.00 | 76 | 1016.3 |
| 20260831104043 | 61 | 223 | 1.0 | 2.0 | 0.00 | 0.16 | 0.00 | 76 | 1016.3 |
| 20260831103543 | 61 | 223 | 0.0 | 2.0 | 0.00 | 0.16 | 0.00 | 76 | 1016.3 |
| 20260831103042 | 61 | 222 | 0.0 | 2.0 | 0.00 | 0.16 | 0.00 | 75 | 1016.2 |
| 20260831102541 | 61 | 221 | 1.0 | 4.0 | 0.00 | 0.16 | 0.00 | 76 | 1016.3 |
| 20260831102042 | 61 | 220 | 1.0 | 4.0 | 0.00 | 0.16 | 0.00 | 75 | 1016.2 |
| 20260831101540 | 61 | 225 | 1.0 | 4.0 | 0.00 | 0.16 | 0.00 | 76 | 1016.2 |
| 20260831101041 | 61 | 229 | 2.0 | 4.0 | 0.00 | 0.16 | 0.00 | 76 | 1016.1 |
| 20260831100540 | 60 | 213 | 1.0 | 3.0 | 0.00 | 0.16 | 0.00 | 76 | 1016.1 |
| 20260831100039 | 60 | 236 | 0.0 | 2.0 | 0.00 | 0.16 | 0.00 | 76 | 1016.1 |
| 20260831095539 | 60 | 224 | 0.0 | 0.0 | 0.00 | 0.16 | 0.00 | 76 | 1016.1 |
| 20260831095039 | 60 | 210 | 0.0 | 1.0 | 0.00 | 0.16 | 0.00 | 75 | 1016.1 |
| 20260831094539 | 60 | 208 | 0.0 | 1.0 | 0.00 | 0.16 | 0.00 | 75 | 1016.1 |
| 20260831094039 | 60 | 250 | 0.0 | 2.0 | 0.00 | 0.16 | 0.00 | 76 | 1016.0 |
| 20260831093539 | 60 | 271 | 1.0 | 2.0 | 0.00 | 0.16 | 0.00 | 76 | 1016.0 |
| 20260831093039 | 60 | 262 | 0.0 | 1.0 | 0.00 | 0.16 | 0.00 | 76 | 1016.0 |
| 20260831092538 | 60 | 262 | 0.0 | 1.0 | 0.00 | 0.16 | 0.00 | 75 | 1016.0 |
| 20260831092038 | 60 | 245 | 0.0 | 3.0 | 0.00 | 0.16 | 0.00 | 75 | 1016.0 |
| 20260831091538 | 60 | 221 | 1.0 | 3.0 | 0.00 | 0.16 | 0.00 | 76 | 1016.0 |
| 20260831091038 | 59 | 248 | 1.0 | 2.0 | 0.00 | 0.16 | 0.00 | 76 | 1016.0 |
| 20260831090537 | 59 | 276 | 1.0 | 2.0 | 0.00 | 0.16 | 0.00 | 76 | 1016.1 |
| 20260831090037 | 59 | 232 | 0.0 | 0.0 | 0.00 | 0.16 | 0.00 | 76 | 1016.0 |
| 20260831085536 | 60 | 232 | 0.0 | 0.0 | 0.00 | 0.16 | 0.00 | 75 | 1016.0 |
| 20260831085038 | 60 | 232 | 0.0 | 0.0 | 0.00 | 0.16 | 0.00 | 74 | 1015.9 |
| 20260831084533 | 61 | 232 | 0.0 | 0.0 | 0.00 | 0.16 | 0.00 | 72 | 1015.9 |
| 20260831084031 | 61 | 232 | 0.0 | 0.0 | 0.00 | 0.16 | 0.00 | 71 | 1015.9 |
| 20260831083531 | 62 | 232 | 0.0 | 0.0 | 0.00 | 0.16 | 0.00 | 70 | 1015.8 |
| 20260831083037 | 62 | 232 | 0.0 | 0.0 | 0.00 | 0.16 | 0.00 | 70 | 1016.0 |
| 20260831082530 | 61 | 232 | 0.0 | 0.0 | 0.00 | 0.16 | 0.00 | 71 | 1016.0 |
| 20260831082029 | 62 | 232 | 0.0 | 0.0 | 0.00 | 0.16 | 0.00 | 70 | 1016.0 |
| 20260831081528 | 62 | 232 | 0.0 | 2.0 | 0.00 | 0.16 | 0.00 | 69 | 1016.0 |
| 20260831081029 | 62 | 231 | 1.0 | 3.0 | 0.00 | 0.16 | 0.00 | 69 | 1016.0 |
| 20260831080527 | 62 | 237 | 1.0 | 3.0 | 0.00 | 0.16 | 0.00 | 68 | 1015.9 |
| 20260831080027 | 63 | 231 | 1.0 | 4.0 | 0.00 | 0.16 | 0.00 | 68 | 1016.1 |
| 20260831075526 | 63 | 234 | 2.0 | 5.0 | 0.00 | 0.16 | 0.00 | 68 | 1016.0 |
| 20260831075026 | 63 | 227 | 3.0 | 4.0 | 0.00 | 0.16 | 0.00 | 68 | 1016.1 |
| 20260831074526 | 63 | 222 | 0.0 | 3.0 | 0.00 | 0.16 | 0.00 | 68 | 1016.0 |
| 20260831074026 | 63 | 217 | 0.0 | 4.0 | 0.00 | 0.16 | 0.00 | 68 | 1016.1 |
| 20260831073526 | 63 | 200 | 0.0 | 4.0 | 0.00 | 0.16 | 0.00 | 68 | 1016.1 |
| 20260831073025 | 63 | 234 | 1.0 | 5.0 | 0.00 | 0.16 | 0.00 | 68 | 1016.2 |
| 20260831072524 | 63 | 216 | 1.0 | 4.0 | 0.00 | 0.16 | 0.00 | 68 | 1016.2 |
| 20260831072024 | 63 | 212 | 1.0 | 4.0 | 0.00 | 0.16 | 0.00 | 68 | 1016.2 |
| 20260831071523 | 63 | 210 | 1.0 | 4.0 | 0.00 | 0.16 | 0.00 | 68 | 1016.2 |
| 20260831071023 | 62 | 217 | 1.0 | 4.0 | 0.00 | 0.16 | 0.00 | 69 | 1016.2 |
| 20260831070522 | 62 | 215 | 0.0 | 2.0 | 0.00 | 0.16 | 0.00 | 69 | 1016.2 |
| 20260831070026 | 62 | 224 | 0.0 | 2.0 | 0.00 | 0.16 | 0.00 | 70 | 1016.1 |
| 20260831065519 | 63 | 148 | 0.0 | 3.0 | 0.00 | 0.16 | 0.00 | 69 | 1016.1 |
| 20260831065019 | 63 | 146 | 1.0 | 3.0 | 0.00 | 0.16 | 0.00 | 69 | 1016.1 |
| 20260831064518 | 63 | 202 | 0.0 | 2.0 | 0.00 | 0.16 | 0.00 | 68 | 1016.0 |
| 20260831064017 | 64 | 155 | 0.0 | 2.0 | 0.00 | 0.16 | 0.00 | 67 | 1016.1 |
| 20260831063515 | 64 | 218 | 0.0 | 2.0 | 0.00 | 0.16 | 0.00 | 67 | 1016.0 |
| 20260831063015 | 64 | 217 | 0.0 | 3.0 | 0.00 | 0.16 | 0.00 | 67 | 1016.0 |
| 20260831062514 | 64 | 217 | 1.0 | 3.0 | 0.00 | 0.16 | 0.00 | 68 | 1016.0 |
| 20260831062013 | 64 | 250 | 1.0 | 3.0 | 0.00 | 0.16 | 0.00 | 68 | 1016.1 |
| 20260831061512 | 64 | 245 | 1.0 | 4.0 | 0.00 | 0.16 | 0.00 | 68 | 1016.1 |
| 20260831061011 | 64 | 240 | 2.0 | 4.0 | 0.00 | 0.16 | 0.00 | 67 | 1016.2 |
| 20260831060509 | 64 | 221 | 2.0 | 5.0 | 0.00 | 0.16 | 0.00 | 67 | 1016.2 |
| 20260831060009 | 64 | 217 | 1.0 | 5.0 | 0.00 | 0.16 | 0.16 | 66 | 1016.3 |
| 20260831055507 | 64 | 215 | 2.0 | 5.0 | 0.00 | 0.16 | 0.16 | 67 | 1016.2 |
| 20260831055007 | 64 | 210 | 3.0 | 5.0 | 0.00 | 0.16 | 0.16 | 67 | 1016.2 |
| 20260831054507 | 64 | 231 | 2.0 | 4.0 | 0.00 | 0.16 | 0.16 | 68 | 1016.2 |
| 20260831054007 | 64 | 226 | 1.0 | 3.0 | 0.00 | 0.16 | 0.16 | 68 | 1016.3 |
| 20260831053507 | 64 | 210 | 1.0 | 3.0 | 0.00 | 0.16 | 0.16 | 68 | 1016.3 |
| 20260831053007 | 64 | 213 | 1.0 | 3.0 | 0.00 | 0.16 | 0.16 | 67 | 1016.4 |
| 20260831052507 | 64 | 223 | 1.0 | 4.0 | 0.00 | 0.16 | 0.16 | 68 | 1016.3 |
| 20260831052006 | 64 | 221 | 1.0 | 5.0 | 0.00 | 0.16 | 0.16 | 68 | 1016.3 |
| 20260831051506 | 64 | 212 | 3.0 | 5.0 | 0.00 | 0.16 | 0.16 | 70 | 1016.4 |
| 20260831051006 | 63 | 215 | 2.0 | 4.0 | 0.00 | 0.16 | 0.16 | 73 | 1016.3 |
| 20260831050506 | 63 | 219 | 0.0 | 2.0 | 0.00 | 0.16 | 0.16 | 74 | 1016.3 |
| 20260831050006 | 64 | 153 | 0.0 | 2.0 | 0.00 | 0.20 | 0.16 | 73 | 1016.3 |
| 20260831045509 | 64 | 138 | 0.0 | 2.0 | 0.00 | 0.20 | 0.16 | 72 | 1016.3 |
| 20260831045006 | 65 | 235 | 0.0 | 0.0 | 0.00 | 0.20 | 0.16 | 71 | 1016.2 |
| 20260831044506 | 65 | 235 | 0.0 | 0.0 | 0.00 | 0.20 | 0.16 | 70 | 1016.0 |
| 20260831044005 | 65 | 235 | 0.0 | 1.0 | 0.00 | 0.20 | 0.16 | 69 | 1016.0 |
| 20260831043507 | 65 | 242 | 0.0 | 2.0 | 0.00 | 0.20 | 0.16 | 69 | 1015.9 |
| 20260831043005 | 66 | 262 | 1.0 | 2.0 | 0.00 | 0.20 | 0.16 | 69 | 1015.8 |
| 20260831042507 | 66 | 250 | 0.0 | 2.0 | 0.00 | 0.20 | 0.16 | 69 | 1015.8 |
| 20260831042006 | 66 | 240 | 1.0 | 2.0 | 0.00 | 0.20 | 0.16 | 69 | 1015.9 |
| 20260831041509 | 66 | 255 | 0.0 | 2.0 | 0.00 | 0.20 | 0.16 | 69 | 1015.9 |
| 20260831041007 | 66 | 262 | 0.0 | 2.0 | 0.00 | 0.20 | 0.16 | 68 | 1015.9 |
| 20260831040504 | 66 | 252 | 1.0 | 3.0 | 0.00 | 0.20 | 0.16 | 67 | 1015.8 |
| 20260831040004 | 66 | 253 | 1.0 | 3.0 | 0.00 | 0.20 | 0.16 | 66 | 1015.9 |
| 20260831035506 | 67 | 251 | 0.0 | 3.0 | 0.00 | 0.20 | 0.16 | 66 | 1015.9 |
| 20260831035001 | 67 | 240 | 1.0 | 5.0 | 0.00 | 0.20 | 0.16 | 66 | 1015.8 |
| 20260831034501 | 67 | 237 | 2.0 | 5.0 | 0.00 | 0.20 | 0.16 | 65 | 1015.8 |
| 20260831034100 | 67 | 223 | 2.0 | 5.0 | 0.00 | 0.20 | 0.16 | 65 | 1015.7 |
| 20260831033702 | 67 | 209 | 2.0 | 5.0 | 0.00 | 0.20 | 0.16 | 66 | 1015.7 |
| 20260831033100 | 67 | 214 | 2.0 | 3.0 | 0.00 | 0.20 | 0.16 | 65 | 1015.7 |
| 20260831032600 | 67 | 205 | 1.0 | 2.0 | 0.00 | 0.20 | 0.16 | 64 | 1015.6 |
| 20260831032102 | 68 | 146 | 0.0 | 2.0 | 0.00 | 0.20 | 0.16 | 62 | 1015.6 |
| 20260831031559 | 68 | 149 | 0.0 | 0.0 | 0.00 | 0.20 | 0.16 | 61 | 1015.5 |
| 20260831031059 | 68 | 149 | 0.0 | 3.0 | 0.00 | 0.20 | 0.16 | 60 | 1015.4 |
| 20260831030701 | 69 | 139 | 0.0 | 3.0 | 0.00 | 0.20 | 0.16 | 59 | 1015.4 |
| 20260831030105 | 69 | 258 | 0.0 | 3.0 | 0.00 | 0.20 | 0.16 | 58 | 1015.3 |
| 20260831025558 | 70 | 278 | 1.0 | 3.0 | 0.00 | 0.20 | 0.16 | 57 | 1015.3 |
| 20260831025058 | 70 | 242 | 0.0 | 2.0 | 0.00 | 0.20 | 0.16 | 56 | 1015.2 |
| 20260831024618 | 70 | 241 | 1.0 | 3.0 | 0.00 | 0.20 | 0.16 | 55 | 1015.2 |
| 20260831024057 | 70 | 263 | 1.0 | 3.0 | 0.00 | 0.20 | 0.16 | 55 | 1015.1 |
| 20260831023557 | 70 | 30 | 0.0 | 0.0 | 0.00 | 0.20 | 0.16 | 54 | 1015.1 |
| 20260831023057 | 71 | 30 | 0.0 | 0.0 | 0.00 | 0.20 | 0.16 | 53 | 1015.1 |
| 20260831022557 | 71 | 30 | 0.0 | 0.0 | 0.00 | 0.20 | 0.16 | 52 | 1015.0 |
| 20260831022057 | 71 | 30 | 0.0 | 0.0 | 0.00 | 0.20 | 0.16 | 51 | 1015.0 |
| 20260831021557 | 72 | 30 | 0.0 | 0.0 | 0.00 | 0.20 | 0.16 | 48 | 1014.9 |
| 20260831021057 | 72 | 30 | 0.0 | 0.0 | 0.00 | 0.20 | 0.16 | 48 | 1014.8 |
| 20260831020600 | 73 | 30 | 0.0 | 0.0 | 0.00 | 0.20 | 0.16 | 47 | 1014.7 |
| 20260831020056 | 73 | 30 | 0.0 | 1.0 | 0.00 | 0.20 | 0.16 | 47 | 1014.8 |
| 20260831015555 | 74 | 37 | 0.0 | 3.0 | 0.00 | 0.24 | 0.16 | 46 | 1014.8 |
| 20260831015057 | 74 | 350 | 0.0 | 5.0 | 0.00 | 0.24 | 0.16 | 46 | 1014.8 |
| 20260831014556 | 75 | 36 | 1.0 | 7.0 | 0.00 | 0.24 | 0.16 | 45 | 1014.7 |
| 20260831014056 | 75 | 335 | 3.0 | 7.0 | 0.00 | 0.24 | 0.16 | 44 | 1014.6 |
| 20260831013556 | 76 | 7 | 2.0 | 4.0 | 0.00 | 0.24 | 0.16 | 44 | 1014.7 |
| 20260831013108 | 76 | 20 | 2.0 | 5.0 | 0.00 | 0.24 | 0.16 | 44 | 1014.7 |
| 20260831012555 | 76 | 323 | 2.0 | 7.0 | 0.00 | 0.24 | 0.16 | 43 | 1014.6 |
| 20260831012056 | 76 | 20 | 2.0 | 5.0 | 0.00 | 0.24 | 0.16 | 43 | 1014.7 |
| 20260831011557 | 76 | 26 | 0.0 | 2.0 | 0.00 | 0.24 | 0.16 | 43 | 1014.7 |
| 20260831011054 | 76 | 328 | 0.0 | 5.0 | 0.00 | 0.24 | 0.16 | 43 | 1014.8 |
| 20260831010556 | 76 | 321 | 2.0 | 7.0 | 0.00 | 0.24 | 0.16 | 43 | 1014.8 |
| 20260831010118 | 76 | 15 | 2.0 | 6.0 | 0.00 | 0.24 | 0.16 | 43 | 1014.9 |
| 20260831005554 | 77 | 32 | 3.0 | 6.0 | 0.00 | 0.24 | 0.16 | 43 | 1014.9 |
| 20260831005054 | 77 | 29 | 3.0 | 8.0 | 0.00 | 0.24 | 0.16 | 44 | 1014.9 |
| 20260831004556 | 77 | 2 | 1.0 | 8.0 | 0.00 | 0.24 | 0.16 | 45 | 1014.9 |
| 20260831004055 | 77 | 33 | 4.0 | 8.0 | 0.00 | 0.24 | 0.16 | 44 | 1014.9 |
| 20260831003553 | 77 | 307 | 4.0 | 9.0 | 0.00 | 0.24 | 0.16 | 44 | 1014.9 |
| 20260831003053 | 76 | 323 | 4.0 | 10.0 | 0.00 | 0.24 | 0.16 | 44 | 1015.0 |
| 20260831002553 | 76 | 34 | 3.0 | 10.0 | 0.00 | 0.24 | 0.16 | 44 | 1015.1 |
| 20260831002054 | 77 | 38 | 4.0 | 9.0 | 0.00 | 0.24 | 0.16 | 45 | 1015.1 |
| 20260831001555 | 77 | 14 | 3.0 | 9.0 | 0.00 | 0.24 | 0.16 | 44 | 1015.0 |
| 20260831001153 | 77 | 4 | 4.0 | 8.0 | 0.00 | 0.24 | 0.16 | 45 | 1015.0 |
| 20260831000552 | 77 | 53 | 5.0 | 9.0 | 0.00 | 0.24 | 0.16 | 44 | 1014.9 |
| 20260831000110 | 77 | 51 | 4.0 | 9.0 | 0.00 | 0.24 | 0.16 | 45 | 1014.9 |
| 20260830235551 | 77 | 30 | 4.0 | 10.0 | 0.00 | 0.24 | 0.16 | 44 | 1014.8 |
| 20260830235051 | 78 | 52 | 4.0 | 10.0 | 0.00 | 0.24 | 0.16 | 44 | 1014.8 |
| 20260830234551 | 77 | 46 | 4.0 | 7.0 | 0.00 | 0.24 | 0.16 | 44 | 1014.8 |
| 20260830234051 | 77 | 49 | 2.0 | 7.0 | 0.00 | 0.24 | 0.16 | 45 | 1014.9 |
| 20260830233552 | 77 | 58 | 2.0 | 7.0 | 0.00 | 0.24 | 0.16 | 45 | 1015.0 |
| 20260830233051 | 76 | 75 | 0.0 | 5.0 | 0.00 | 0.24 | 0.16 | 46 | 1015.1 |
| 20260830232551 | 76 | 120 | 2.0 | 9.0 | 0.00 | 0.24 | 0.16 | 46 | 1015.1 |
| 20260830232051 | 75 | 135 | 3.0 | 7.0 | 0.00 | 0.24 | 0.16 | 49 | 1015.1 |
| 20260830231553 | 75 | 65 | 3.0 | 8.0 | 0.00 | 0.24 | 0.16 | 50 | 1015.1 |
| 20260830231049 | 77 | 101 | 3.0 | 7.0 | 0.00 | 0.24 | 0.16 | 47 | 1015.1 |
| 20260830230549 | 77 | 37 | 1.0 | 8.0 | 0.00 | 0.24 | 0.16 | 43 | 1015.2 |
| 20260830230054 | 77 | 63 | 4.0 | 8.0 | 0.00 | 0.24 | 0.16 | 44 | 1015.1 |
| 20260830225549 | 77 | 317 | 4.0 | 10.0 | 0.00 | 0.25 | 0.16 | 45 | 1015.1 |
| 20260830225048 | 77 | 335 | 5.0 | 10.0 | 0.00 | 0.25 | 0.16 | 45 | 1015.1 |
| 20260830224548 | 77 | 330 | 4.0 | 12.0 | 0.00 | 0.25 | 0.16 | 43 | 1015.2 |
| 20260830224048 | 78 | 321 | 4.0 | 12.0 | 0.00 | 0.25 | 0.16 | 42 | 1015.1 |
| 20260830223552 | 78 | 327 | 6.0 | 12.0 | 0.00 | 0.25 | 0.16 | 42 | 1015.0 |
| 20260830223119 | 78 | 1 | 5.0 | 12.0 | 0.00 | 0.25 | 0.16 | 41 | 1015.1 |
| 20260830222551 | 78 | 304 | 5.0 | 11.0 | 0.00 | 0.25 | 0.16 | 40 | 1015.1 |
| 20260830222047 | 79 | 37 | 6.0 | 11.0 | 0.00 | 0.25 | 0.16 | 40 | 1015.1 |
| 20260830221552 | 79 | 344 | 2.0 | 8.0 | 0.00 | 0.25 | 0.16 | 41 | 1015.2 |
| 20260830221048 | 80 | 34 | 3.0 | 8.0 | 0.00 | 0.25 | 0.16 | 39 | 1015.1 |
| 20260830220547 | 80 | 186 | 0.0 | 4.0 | 0.00 | 0.25 | 0.16 | 38 | 1015.3 |
| 20260830220046 | 80 | 118 | 2.0 | 4.0 | 0.00 | 0.25 | 0.16 | 37 | 1015.5 |
| 20260830215545 | 80 | 169 | 0.0 | 5.0 | 0.00 | 0.25 | 0.16 | 42 | 1015.4 |
| 20260830215044 | 79 | 137 | 1.0 | 5.0 | 0.00 | 0.25 | 0.16 | 41 | 1015.3 |
| 20260830214543 | 79 | 121 | 0.0 | 4.0 | 0.00 | 0.25 | 0.16 | 41 | 1015.4 |
| 20260830214042 | 78 | 290 | 1.0 | 4.0 | 0.00 | 0.25 | 0.16 | 42 | 1015.5 |
| 20260830213543 | 78 | 197 | 2.0 | 4.0 | 0.00 | 0.25 | 0.16 | 43 | 1015.6 |
| 20260830213042 | 77 | 219 | 0.0 | 1.0 | 0.00 | 0.25 | 0.16 | 44 | 1015.5 |
| 20260830212541 | 76 | 199 | 0.0 | 5.0 | 0.00 | 0.25 | 0.16 | 45 | 1015.5 |
| 20260830212041 | 76 | 226 | 1.0 | 5.0 | 0.00 | 0.25 | 0.16 | 46 | 1015.6 |
| 20260830211541 | 76 | 193 | 2.0 | 4.0 | 0.00 | 0.25 | 0.16 | 47 | 1015.7 |
| 20260830211041 | 76 | 230 | 0.0 | 3.0 | 0.00 | 0.25 | 0.16 | 48 | 1015.8 |
| 20260830210539 | 76 | 160 | 0.0 | 6.0 | 0.00 | 0.25 | 0.16 | 48 | 1015.8 |
| 20260830210040 | 76 | 137 | 2.0 | 5.0 | 0.00 | 0.25 | 0.16 | 48 | 1015.9 |
| 20260830205538 | 76 | 161 | 1.0 | 5.0 | 0.00 | 0.25 | 0.16 | 48 | 1016.2 |
| 20260830205039 | 76 | 125 | 0.0 | 9.0 | 0.00 | 0.25 | 0.16 | 45 | 1016.2 |
| 20260830204538 | 76 | 129 | 2.0 | 9.0 | 0.00 | 0.25 | 0.16 | 46 | 1016.0 |
| 20260830204037 | 76 | 154 | 4.0 | 9.0 | 0.00 | 0.25 | 0.16 | 46 | 1015.8 |
| 20260830203537 | 77 | 108 | 1.0 | 10.0 | 0.00 | 0.25 | 0.16 | 47 | 1015.9 |
| 20260830203037 | 77 | 123 | 5.0 | 10.0 | 0.00 | 0.25 | 0.16 | 45 | 1016.2 |
| 20260830202538 | 78 | 143 | 2.0 | 8.0 | 0.00 | 0.25 | 0.16 | 47 | 1016.1 |
| 20260830202036 | 78 | 117 | 2.0 | 11.0 | 0.00 | 0.25 | 0.16 | 47 | 1016.2 |
| 20260830201537 | 78 | 176 | 6.0 | 13.0 | 0.00 | 0.25 | 0.16 | 47 | 1016.2 |
| 20260830201033 | 78 | 155 | 4.0 | 13.0 | 0.00 | 0.25 | 0.16 | 49 | 1016.0 |
| 20260830200532 | 78 | 124 | 5.0 | 11.0 | 0.00 | 0.25 | 0.16 | 50 | 1016.0 |
| 20260830200031 | 78 | 135 | 5.0 | 11.0 | 0.00 | 0.25 | 0.16 | 49 | 1016.2 |
| 20260830195533 | 77 | 126 | 7.0 | 13.0 | 0.00 | 0.25 | 0.16 | 50 | 1016.3 |
| 20260830195033 | 77 | 134 | 7.0 | 13.0 | 0.00 | 0.25 | 0.16 | 50 | 1016.3 |
| 20260830194533 | 77 | 134 | 5.0 | 13.0 | 0.00 | 0.25 | 0.16 | 50 | 1016.3 |
| 20260830194029 | 77 | 148 | 4.0 | 17.0 | 0.00 | 0.25 | 0.16 | 51 | 1016.3 |
| 20260830193529 | 77 | 200 | 8.0 | 17.0 | 0.00 | 0.25 | 0.16 | 50 | 1016.4 |
| 20260830193033 | 76 | 155 | 4.0 | 15.0 | 0.00 | 0.25 | 0.16 | 52 | 1016.3 |
| 20260830192526 | 76 | 134 | 7.0 | 15.0 | 0.00 | 0.25 | 0.16 | 51 | 1016.4 |
| 20260830192027 | 76 | 148 | 8.0 | 14.0 | 0.00 | 0.25 | 0.16 | 51 | 1016.5 |
| 20260830191525 | 76 | 146 | 5.0 | 13.0 | 0.00 | 0.25 | 0.16 | 51 | 1016.6 |
| 20260830191024 | 75 | 119 | 7.0 | 14.0 | 0.00 | 0.25 | 0.16 | 51 | 1016.7 |
| 20260830190523 | 75 | 134 | 8.0 | 14.0 | 0.00 | 0.25 | 0.16 | 50 | 1016.8 |
| 20260830190027 | 75 | 173 | 7.0 | 15.0 | 0.00 | 0.25 | 0.16 | 52 | 1016.9 |
| 20260830185525 | 75 | 129 | 8.0 | 15.0 | 0.00 | 0.25 | 0.16 | 51 | 1016.9 |
| 20260830185023 | 75 | 101 | 7.0 | 17.0 | 0.00 | 0.25 | 0.16 | 49 | 1016.9 |
| 20260830184528 | 75 | 137 | 7.0 | 16.0 | 0.00 | 0.25 | 0.16 | 50 | 1017.0 |
| 20260830184021 | 75 | 190 | 8.0 | 14.0 | 0.00 | 0.25 | 0.16 | 52 | 1016.9 |
| 20260830183521 | 75 | 136 | 5.0 | 12.0 | 0.00 | 0.25 | 0.16 | 53 | 1016.9 |
| 20260830183024 | 75 | 136 | 7.0 | 13.0 | 0.00 | 0.25 | 0.16 | 51 | 1016.9 |
| 20260830182521 | 75 | 144 | 7.0 | 14.0 | 0.00 | 0.25 | 0.16 | 53 | 1016.9 |
| 20260830182018 | 74 | 196 | 7.0 | 15.0 | 0.00 | 0.25 | 0.16 | 53 | 1016.9 |
| 20260830181517 | 74 | 136 | 8.0 | 15.0 | 0.00 | 0.25 | 0.16 | 55 | 1016.9 |
| 20260830180513 | 74 | 117 | 6.0 | 16.0 | 0.00 | 0.25 | 0.16 | 57 | 1016.9 |
| 20260830180012 | 73 | 164 | 8.0 | 19.0 | 0.00 | 0.62 | 0.16 | 57 | 1016.9 |
| 20260830175513 | 73 | 173 | 8.0 | 19.0 | 0.00 | 0.62 | 0.16 | 58 | 1016.9 |
| 20260830175009 | 73 | 148 | 7.0 | 15.0 | 0.00 | 0.62 | 0.16 | 59 | 1017.0 |
| 20260830174508 | 73 | 166 | 7.0 | 15.0 | 0.00 | 0.62 | 0.16 | 57 | 1017.0 |
| 20260830174006 | 73 | 104 | 8.0 | 13.0 | 0.00 | 0.62 | 0.16 | 57 | 1017.0 |
| 20260830173505 | 73 | 163 | 8.0 | 15.0 | 0.00 | 0.62 | 0.16 | 57 | 1017.0 |
| 20260830173003 | 72 | 119 | 7.0 | 16.0 | 0.00 | 0.62 | 0.16 | 58 | 1017.0 |